Time,TemperatureF,DewpointF,PressureIn,WindDirection,WindDirectionDegrees,WindSpeedMPH,WindSpeedGustMPH,Humidity,HourlyPrecipIn,Conditions,Clouds,dailyrainin,SoftwareType,DateUTC
2013-05-07 00:01:00,55.2,54.6,29.86,NW,315,0.0,-999.0,98,-99.99,,,0.00,Acu-Link.com,2013-05-07 07:01:00,
2013-05-07 00:16:00,55.2,54.6,29.87,ESE,112,0.0,-999.0,98,-99.99,,,0.00,Acu-Link.com,2013-05-07 07:16:00,
2013-05-07 00:32:00,55.0,54.4,29.87,NW,315,0.0,-999.0,98,-99.99,,,0.00,Acu-Link.com,2013-05-07 07:32:00,
2013-05-07 00:47:00,54.9,54.3,29.87,NNW,337,0.0,-999.0,98,-99.99,,,0.00,Acu-Link.com,2013-05-07 07:47:00,
2013-05-07 01:02:00,54.9,54.3,29.87,NNE,22,0.0,-999.0,98,-99.99,,,0.00,Acu-Link.com,2013-05-07 08:02:00,
2013-05-07 01:17:00,54.9,54.3,29.87,WNW,292,0.0,-999.0,98,-99.99,,,0.00,Acu-Link.com,2013-05-07 08:17:00,
2013-05-07 01:33:00,54.7,54.1,29.87,WNW,292,0.0,-999.0,98,-99.99,,,0.00,Acu-Link.com,2013-05-07 08:33:00,
2013-05-07 01:48:00,54.1,53.5,29.87,SSE,157,2.2,-999.0,98,-99.99,,,0.00,Acu-Link.com,2013-05-07 08:48:00,
2013-05-07 02:03:00,53.8,53.2,29.86,ESE,112,0.0,-999.0,98,-99.99,,,0.00,Acu-Link.com,2013-05-07 09:03:00,
2013-05-07 02:18:00,53.6,53.0,29.87,East,90,0.0,-999.0,98,-99.99,,,0.00,Acu-Link.com,2013-05-07 09:18:00,
2013-05-07 02:34:00,53.6,53.0,29.87,ESE,112,0.0,-999.0,98,-99.99,,,0.00,Acu-Link.com,2013-05-07 09:34:00,
2013-05-07 02:49:00,53.6,53.0,29.87,ESE,112,0.0,-999.0,98,-99.99,,,0.00,Acu-Link.com,2013-05-07 09:49:00,
2013-05-07 03:04:00,53.4,52.8,29.87,SSE,157,0.0,-999.0,98,-99.99,,,0.00,Acu-Link.com,2013-05-07 10:04:00,
2013-05-07 03:19:00,53.4,52.8,29.87,SE,135,1.7,-999.0,98,-99.99,,,0.00,Acu-Link.com,2013-05-07 10:19:00,
2013-05-07 03:34:00,53.4,52.8,29.87,SSE,157,0.0,-999.0,98,-99.99,,,0.00,Acu-Link.com,2013-05-07 10:34:00,
2013-05-07 03:50:00,53.4,52.8,29.87,SE,135,2.2,-999.0,98,-99.99,,,0.00,Acu-Link.com,2013-05-07 10:50:00,
2013-05-07 04:05:00,53.6,53.0,29.87,SE,135,0.0,-999.0,98,-99.99,,,0.00,Acu-Link.com,2013-05-07 11:05:00,
2013-05-07 04:20:00,53.6,53.0,29.87,SSE,157,1.7,-999.0,98,-99.99,,,0.00,Acu-Link.com,2013-05-07 11:20:00,
2013-05-07 04:35:00,53.6,53.0,29.87,ESE,112,2.2,-999.0,98,-99.99,,,0.00,Acu-Link.com,2013-05-07 11:35:00,
2013-05-07 04:50:00,53.8,53.2,29.87,South,180,2.2,-999.0,98,-99.99,,,0.00,Acu-Link.com,2013-05-07 11:50:00,
2013-05-07 05:06:00,53.6,53.0,29.88,SE,135,2.7,-999.0,98,-99.99,,,0.00,Acu-Link.com,2013-05-07 12:06:00,
2013-05-07 05:21:00,53.6,53.0,29.88,SE,135,3.2,-999.0,98,-99.99,,,0.00,Acu-Link.com,2013-05-07 12:21:00,
2013-05-07 05:36:00,53.6,53.0,29.88,SE,135,3.2,-999.0,98,-99.99,,,0.01,Acu-Link.com,2013-05-07 12:36:00,
2013-05-07 05:51:00,53.2,52.6,29.88,ESE,112,2.7,-999.0,98,-99.99,,,0.18,Acu-Link.com,2013-05-07 12:51:00,
2013-05-07 06:07:00,53.4,52.8,29.89,ESE,112,2.7,-999.0,98,-99.99,,,0.21,Acu-Link.com,2013-05-07 13:07:00,
2013-05-07 06:22:00,53.4,52.8,29.89,SE,135,2.7,-999.0,98,-99.99,,,0.29,Acu-Link.com,2013-05-07 13:22:00,
2013-05-07 06:37:00,53.2,52.6,29.89,ESE,112,4.7,-999.0,98,-99.99,,,0.40,Acu-Link.com,2013-05-07 13:37:00,
2013-05-07 07:09:00,53.2,52.6,29.89,SSE,157,5.8,-999.0,98,-99.99,,,0.47,Acu-Link.com,2013-05-07 14:09:00,
2013-05-07 07:24:00,53.2,52.6,29.90,SE,135,2.7,-999.0,98,-99.99,,,0.48,Acu-Link.com,2013-05-07 14:24:00,
2013-05-07 07:40:00,52.9,52.4,29.90,ESE,112,2.7,-999.0,98,-99.99,,,0.48,Acu-Link.com,2013-05-07 14:40:00,
2013-05-07 07:55:00,52.9,52.4,29.90,SSE,157,3.2,-999.0,98,-99.99,,,0.48,Acu-Link.com,2013-05-07 14:55:00,
2013-05-07 08:10:00,53.2,52.6,29.91,ESE,112,3.2,-999.0,98,-99.99,,,0.48,Acu-Link.com,2013-05-07 15:10:00,
2013-05-07 08:25:00,53.2,52.6,29.92,SE,135,3.7,-999.0,98,-99.99,,,0.48,Acu-Link.com,2013-05-07 15:25:00,
2013-05-07 08:40:00,53.6,53.0,29.92,SSE,157,3.2,-999.0,98,-99.99,,,0.48,Acu-Link.com,2013-05-07 15:40:00,
2013-05-07 08:56:00,54.5,53.9,29.92,SE,135,4.2,-999.0,98,-99.99,,,0.48,Acu-Link.com,2013-05-07 15:56:00,
2013-05-07 09:11:00,54.5,53.9,29.93,SE,135,3.7,-999.0,98,-99.99,,,0.48,Acu-Link.com,2013-05-07 16:11:00,
2013-05-07 09:26:00,55.0,54.4,29.93,SE,135,5.3,-999.0,98,-99.99,,,0.48,Acu-Link.com,2013-05-07 16:26:00,
2013-05-07 09:41:00,55.8,55.2,29.93,ESE,112,2.7,-999.0,98,-99.99,,,0.48,Acu-Link.com,2013-05-07 16:41:00,
2013-05-07 09:57:00,56.3,55.7,29.93,SSE,157,2.2,-999.0,98,-99.99,,,0.48,Acu-Link.com,2013-05-07 16:57:00,
2013-05-07 10:12:00,56.7,56.1,29.93,ESE,112,1.7,-999.0,98,-99.99,,,0.48,Acu-Link.com,2013-05-07 17:12:00,
2013-05-07 10:27:00,57.7,57.1,29.94,SE,135,5.8,-999.0,98,-99.99,,,0.48,Acu-Link.com,2013-05-07 17:27:00,
2013-05-07 10:42:00,58.8,58.2,29.94,East,90,3.7,-999.0,98,-99.99,,,0.48,Acu-Link.com,2013-05-07 17:42:00,
2013-05-07 10:58:00,60.3,59.7,29.94,ESE,112,5.3,-999.0,98,-99.99,,,0.48,Acu-Link.com,2013-05-07 17:58:00,
2013-05-07 11:13:00,60.8,60.2,29.94,WSW,247,2.7,-999.0,98,-99.99,,,0.48,Acu-Link.com,2013-05-07 18:13:00,
2013-05-07 11:28:00,61.9,61.3,29.94,SE,135,5.8,-999.0,98,-99.99,,,0.48,Acu-Link.com,2013-05-07 18:28:00,
2013-05-07 11:43:00,60.3,59.7,29.95,SE,135,5.8,-999.0,98,-99.99,,,0.48,Acu-Link.com,2013-05-07 18:43:00,
2013-05-07 11:59:00,61.5,60.9,29.94,North,0,1.1,-999.0,98,-99.99,,,0.48,Acu-Link.com,2013-05-07 18:59:00,
2013-05-07 12:14:00,62.4,61.8,29.95,ESE,112,3.7,-999.0,98,-99.99,,,0.48,Acu-Link.com,2013-05-07 19:14:00,
2013-05-07 12:29:00,62.4,61.8,29.94,ESE,112,7.3,-999.0,98,-99.99,,,0.48,Acu-Link.com,2013-05-07 19:29:00,
2013-05-07 12:44:00,62.4,61.8,29.94,ESE,112,3.2,-999.0,98,-99.99,,,0.48,Acu-Link.com,2013-05-07 19:44:00,
2013-05-07 12:59:00,61.5,60.9,29.94,NNE,22,1.1,-999.0,98,-99.99,,,0.48,Acu-Link.com,2013-05-07 19:59:00,
2013-05-07 13:15:00,61.5,60.9,29.94,SSW,202,4.2,-999.0,98,-99.99,,,0.48,Acu-Link.com,2013-05-07 20:15:00,
2013-05-07 13:30:00,61.5,60.9,29.93,South,180,1.1,-999.0,98,-99.99,,,0.48,Acu-Link.com,2013-05-07 20:30:00,
2013-05-07 13:45:00,61.7,61.1,29.93,SW,225,1.1,-999.0,98,-99.99,,,0.48,Acu-Link.com,2013-05-07 20:45:00,
2013-05-07 14:00:00,61.9,61.3,29.93,SE,135,4.7,-999.0,98,-99.99,,,0.48,Acu-Link.com,2013-05-07 21:00:00,
2013-05-07 14:15:00,63.3,62.7,29.93,ESE,112,1.7,-999.0,98,-99.99,,,0.48,Acu-Link.com,2013-05-07 21:15:00,
2013-05-07 14:31:00,63.7,63.1,29.93,SE,135,4.2,-999.0,98,-99.99,,,0.48,Acu-Link.com,2013-05-07 21:31:00,
2013-05-07 14:46:00,64.4,63.8,29.93,ESE,112,2.2,-999.0,98,-99.99,,,0.48,Acu-Link.com,2013-05-07 21:46:00,
2013-05-07 15:01:00,64.8,64.2,29.92,North,0,2.7,-999.0,98,-99.99,,,0.48,Acu-Link.com,2013-05-07 22:01:00,
2013-05-07 15:16:00,65.1,64.5,29.93,West,270,0.0,-999.0,98,-99.99,,,0.48,Acu-Link.com,2013-05-07 22:16:00,
2013-05-07 15:31:00,64.9,64.3,29.92,ESE,112,2.7,-999.0,98,-99.99,,,0.48,Acu-Link.com,2013-05-07 22:31:00,
2013-05-07 15:47:00,65.5,64.9,29.92,ENE,67,2.2,-999.0,98,-99.99,,,0.48,Acu-Link.com,2013-05-07 22:47:00,
2013-05-07 16:02:00,65.3,64.7,29.91,ENE,67,2.7,-999.0,98,-99.99,,,0.48,Acu-Link.com,2013-05-07 23:02:00,
2013-05-07 16:17:00,66.7,66.1,29.90,North,0,0.0,-999.0,98,-99.99,,,0.48,Acu-Link.com,2013-05-07 23:17:00,
2013-05-07 16:32:00,66.0,65.4,29.90,West,270,1.7,-999.0,98,-99.99,,,0.48,Acu-Link.com,2013-05-07 23:32:00,
2013-05-07 16:47:00,66.7,66.1,29.90,East,90,1.7,-999.0,98,-99.99,,,0.48,Acu-Link.com,2013-05-07 23:47:00,
2013-05-07 17:02:00,67.8,67.2,29.89,SSE,157,1.1,-999.0,98,-99.99,,,0.48,Acu-Link.com,2013-05-08 00:02:00,
2013-05-07 17:18:00,66.0,65.4,29.89,West,270,1.1,-999.0,98,-99.99,,,0.48,Acu-Link.com,2013-05-08 00:18:00,
2013-05-07 17:33:00,64.9,64.3,29.90,West,270,0.0,-999.0,98,-99.99,,,0.48,Acu-Link.com,2013-05-08 00:33:00,
2013-05-07 17:48:00,64.8,64.2,29.90,WNW,292,0.0,-999.0,98,-99.99,,,0.48,Acu-Link.com,2013-05-08 00:48:00,
2013-05-07 18:03:00,65.3,64.7,29.90,SSW,202,0.0,-999.0,98,-99.99,,,0.48,Acu-Link.com,2013-05-08 01:03:00,
2013-05-07 18:18:00,65.1,64.5,29.90,WSW,247,0.0,-999.0,98,-99.99,,,0.48,Acu-Link.com,2013-05-08 01:18:00,
2013-05-07 18:33:00,65.3,64.7,29.89,SSE,157,2.7,-999.0,98,-99.99,,,0.48,Acu-Link.com,2013-05-08 01:33:00,
2013-05-07 18:48:00,64.9,64.3,29.89,SSE,157,1.1,-999.0,98,-99.99,,,0.48,Acu-Link.com,2013-05-08 01:48:00,
2013-05-07 19:04:00,64.6,64.0,29.90,SE,135,2.2,-999.0,98,-99.99,,,0.48,Acu-Link.com,2013-05-08 02:04:00,
2013-05-07 19:19:00,64.4,63.8,29.90,ESE,112,0.0,-999.0,98,-99.99,,,0.48,Acu-Link.com,2013-05-08 02:19:00,
2013-05-07 19:34:00,63.7,63.1,29.91,South,180,1.1,-999.0,98,-99.99,,,0.48,Acu-Link.com,2013-05-08 02:34:00,
2013-05-07 19:49:00,63.3,62.7,29.90,SSE,157,1.1,-999.0,98,-99.99,,,0.48,Acu-Link.com,2013-05-08 02:49:00,
2013-05-07 20:04:00,62.8,62.2,29.90,ESE,112,2.7,-999.0,98,-99.99,,,0.48,Acu-Link.com,2013-05-08 03:04:00,
2013-05-07 20:20:00,62.2,61.6,29.91,ESE,112,2.7,-999.0,98,-99.99,,,0.48,Acu-Link.com,2013-05-08 03:20:00,
2013-05-07 20:35:00,61.7,61.1,29.91,SE,135,2.7,-999.0,98,-99.99,,,0.48,Acu-Link.com,2013-05-08 03:35:00,
2013-05-07 20:50:00,61.3,60.7,29.91,SSE,157,1.7,-999.0,98,-99.99,,,0.48,Acu-Link.com,2013-05-08 03:50:00,
2013-05-07 21:05:00,60.8,60.2,29.91,SSE,157,3.7,-999.0,98,-99.99,,,0.48,Acu-Link.com,2013-05-08 04:05:00,
2013-05-07 21:21:00,60.4,59.8,29.91,ESE,112,2.2,-999.0,98,-99.99,,,0.48,Acu-Link.com,2013-05-08 04:21:00,
2013-05-07 21:36:00,60.4,59.8,29.92,ESE,112,2.2,-999.0,98,-99.99,,,0.48,Acu-Link.com,2013-05-08 04:36:00,
2013-05-07 21:51:00,60.3,59.7,29.92,ENE,67,2.7,-999.0,98,-99.99,,,0.48,Acu-Link.com,2013-05-08 04:51:00,
2013-05-07 22:06:00,60.1,59.5,29.92,ESE,112,1.7,-999.0,98,-99.99,,,0.48,Acu-Link.com,2013-05-08 05:06:00,
2013-05-07 22:22:00,59.9,59.3,29.92,ESE,112,1.1,-999.0,98,-99.99,,,0.48,Acu-Link.com,2013-05-08 05:22:00,
2013-05-07 22:37:00,59.5,58.9,29.93,SSE,157,2.7,-999.0,98,-99.99,,,0.48,Acu-Link.com,2013-05-08 05:37:00,
2013-05-07 22:52:00,59.5,58.9,29.93,SSE,157,2.7,-999.0,98,-99.99,,,0.48,Acu-Link.com,2013-05-08 05:52:00,
2013-05-07 23:07:00,59.4,58.8,29.93,SE,135,3.7,-999.0,98,-99.99,,,0.48,Acu-Link.com,2013-05-08 06:07:00,
2013-05-07 23:23:00,59.4,58.8,29.94,ESE,112,2.7,-999.0,98,-99.99,,,0.48,Acu-Link.com,2013-05-08 06:23:00,
2013-05-07 23:38:00,59.4,58.8,29.93,SE,135,2.7,-999.0,98,-99.99,,,0.48,Acu-Link.com,2013-05-08 06:38:00,
2013-05-07 23:53:00,59.2,58.6,29.93,ESE,112,0.0,-999.0,98,-99.99,,,0.48,Acu-Link.com,2013-05-08 06:53:00,